Weather History for KVPC - May, 2013

Change the Weather History Date:

Sunday, May 26, 2013

  Actual Average Record
Temperature  
Mean Temperature 64 °F 70 °F  
Max Temperature 83 °F 82 °F 93 °F (2012)
Min Temperature 45 °F 58 °F 45 °F (2013)
Degree Days  
Heating Degree Days 1    
Cooling Degree Days 0 6  
Month to date cooling degree days 57 93  
Year to date cooling degree days 83 118  
Growing Degree Days 14 (Base 50)    
Moisture  
Dew Point 51 °F    
Average Humidity 66    
Maximum Humidity 100    
Minimum Humidity 31    
Precipitation  
Precipitation 0.00 in 0.13 in 0.74 in (1968)
Month to date precipitation 6.26 3.39  
Year to date precipitation 11.81 21.52  
Sea Level Pressure  
Sea Level Pressure 30.20 in    
Wind  
Wind Speed 1 mph (NNW)    
Max Wind Speed 8 mph    
Max Gust Speed 12 mph    
Visibility 10 miles    
Events      
T = Trace of Precipitation, MM = Missing Value Source: NWS Daily Summary

Daily Weather History Graph

Daily Weather History Graph

Search for Another Location

Airport or City:

Trip Planner

Search our weather history database for the weather conditions in past years. The results will help you decide how hot, cold, wet, or windy it might be!

Date:

Astronomy

May. 26, 2013 Rise Set
Actual Time 6:31 AM EDT 8:42 PM EDT
Civil Twilight 6:02 AM EDT 9:10 PM EDT
Nautical Twilight 5:27 AM EDT 9:45 PM EDT
Astronomical Twilight 4:50 AM EDT 10:23 PM EDT
Moon 10:30 PM EDT (5/26) 7:58 AM EDT (5/26)
Length of Visible Light 15h 08m
Length of Day
14h 11m
Waning Gibbous, 97% of the Moon is Illuminated
May 26
Waning Gibbous
May 31
Last Quarter
Jun 8
New
Jun 16
First Quarter
Jun 23
Full

Hourly Weather History & Observations

Time (EDT) Temp. Heat Index Dew Point Humidity Pressure Visibility Wind Dir Wind Speed Gust Speed Precip Events Conditions
12:53 AM 51.1 °F - 50.0 °F 96% 30.19 in 10.0 mi Calm Calm - N/A   Clear
1:53 AM 50.0 °F - 48.9 °F 96% 30.18 in 10.0 mi Calm Calm - N/A   Clear
2:53 AM 48.0 °F - 48.0 °F 100% 30.17 in 10.0 mi Calm Calm - N/A   Clear
3:53 AM 46.9 °F - 46.9 °F 100% 30.18 in 10.0 mi Calm Calm - N/A   Clear
4:53 AM 46.9 °F - 46.9 °F 100% 30.19 in 10.0 mi Calm Calm - N/A   Clear
5:53 AM 46.0 °F - 46.0 °F 100% 30.22 in 10.0 mi Calm Calm - N/A   Clear
6:53 AM 46.0 °F - 46.0 °F 100% 30.24 in 10.0 mi Calm Calm - N/A   Clear
7:53 AM 53.1 °F - 52.0 °F 96% 30.26 in 10.0 mi Calm Calm - N/A   Clear
8:53 AM 60.1 °F - 53.1 °F 78% 30.27 in 10.0 mi Calm Calm - N/A   Clear
9:53 AM 66.0 °F - 54.0 °F 65% 30.26 in 10.0 mi Calm Calm - N/A   Clear
10:53 AM 72.0 °F - 55.9 °F 57% 30.25 in 10.0 mi Variable 3.5 mph - N/A   Clear
11:53 AM 77.0 °F - 54.0 °F 45% 30.25 in 10.0 mi Calm Calm - N/A   Partly Cloudy
12:53 PM 78.1 °F - 48.9 °F 36% 30.24 in 10.0 mi Variable 3.5 mph - N/A   Clear
1:53 PM 80.1 °F - 48.9 °F 34% 30.22 in 10.0 mi Variable 4.6 mph - N/A   Clear
2:53 PM 82.0 °F 81.2 °F 53.1 °F 37% 30.21 in 10.0 mi NNW 4.6 mph - N/A   Clear
3:53 PM 82.0 °F - 50.0 °F 33% 30.18 in 10.0 mi Calm Calm - N/A   Clear
4:53 PM 82.0 °F - 51.1 °F 34% 30.17 in 10.0 mi Variable 3.5 mph - N/A   Clear
5:53 PM 82.0 °F - 48.0 °F 30% 30.16 in 10.0 mi Calm Calm - N/A   Clear
6:53 PM 81.0 °F - 48.0 °F 31% 30.15 in 10.0 mi Calm Calm - N/A   Clear
7:53 PM 73.9 °F - 52.0 °F 46% 30.15 in 10.0 mi Calm Calm - N/A   Clear
8:53 PM 63.0 °F - 57.0 °F 81% 30.15 in 10.0 mi Calm Calm - N/A   Clear
9:53 PM 62.1 °F - 55.0 °F 78% 30.16 in 10.0 mi Calm Calm - N/A   Clear
10:53 PM 60.1 °F - 54.0 °F 80% 30.17 in 10.0 mi Calm Calm - N/A   Clear
11:53 PM 55.9 °F - 54.0 °F 93% 30.18 in 10.0 mi Calm Calm - N/A   Clear